Zurück zum Katalog

PELICAN-1 3001

AktivWissenschaftSSO
NORAD 58296·PAYLOAD·🇺🇸 United States

Gestartet Nov 11, 2023 von Vandenberg Space Force Base

Loading…

Nächste Überflüge (nächste 24 Stunden)

TLE

AktuellSource: CelesTrak SupGP

Epoche: Sep 14, 2026, 20:44 UTC

1 58296C 23174AS  26257.86432870  .00037624  00000+0  34107-3 0  2573
2 58296  97.4000   3.5766 0001863  67.2647  66.4650 15.67999019    13

Verfolge PELICAN-1 3001 in Echtzeit mit AllMySat

Download on the App Store